Location: ???? ?????
(30.0052°N, 31.2891°E)
Time: 13:04:47
(UTC+00:00)

BREEZE-M DEB (TANK) - Visible Passes

Search period start: 07 October 2022 00:00
Search period end: 17 October 2022 00:00
Orbit: 307 x 17088 km, 49.3° (Epoch: 06 October)

Date Brightness Start Highest point End Pass type
(mag) Time Alt. Az. Time Alt. Az. Time Alt. Az.
07 Oct 3.9 16:59:33 10° NNW 17:02:06 33° NE 17:02:06 33° NE visible
08 Oct 6.2 18:37:12 10° WNW 18:37:27 12° WNW 18:37:27 12° WNW visible
10 Oct 3.9 16:37:18 10° NNW 16:39:51 30° NE 16:41:02 26° ENE visible
11 Oct 5.3 18:14:44 10° WNW 18:16:21 28° W 18:16:21 28° W visible
13 Oct 3.9 16:14:35 10° NNW 16:16:59 27° NE 16:19:59 16° E visible
14 Oct 4.7 17:51:48 10° WNW 17:55:23 46° SW 17:55:25 46° SW visible
15 Oct7.119:49:05S19:49:05S19:30:58WSWvisible
16 Oct 9.3 04:11:38 10° S 04:57:01 20° SE 05:12:40 10° E visible
16 Oct 3.9 15:51:27 10° N 15:53:41 23° NE 15:57:59 10° ESE visible
